Location: 埔里
(23.9503°N, 120.9728°E)
Time: 17:13:12
(UTC+08:00)

Envisat - Visible Passes

Search period start: 04 August 2020 00:00
Search period end: 14 August 2020 00:00
Orbit: 764 x 766 km, 98.1° (Epoch: 03 August)

Date Brightness Start Highest point End Pass type
(mag) Time Alt. Az. Time Alt. Az. Time Alt. Az.
05 Aug 5.9 04:52:39 10° ENE 04:55:21 14° E 04:58:03 10° SE visible
08 Aug 6.4 04:43:11 10° E 04:43:56 10° E 04:44:42 10° ESE visible
10 Aug 5.7 05:05:40 10° NE 05:09:31 21° E 05:13:20 10° SSE visible
13 Aug 5.9 04:55:02 10° ENE 04:58:07 16° E 05:01:11 10° SE visible
